STARLINK-34695, 64916

Orbit data source: Space-Track

STARLINK-34695, 64916 is a payload satellite owned by SpaceX/Seattle (US) in LEO that was launched on Sat, 26 Jul 2025 UTC via an FALCON 9 launch vehicle from the Air Force Eastern Test Range (AFETR). Payload-class satellites include a variety of spacecraft equipped with specific instruments for various scientific and technological missions. These include communications satellites like Starlink; space stations such as the ISS; scientific satellites like the Hubble; Earth observation satellites from companies like Planet Labs, Umbra, and HawkEye 360; GPS; miniature CubeSats for education and research; and military/defense satellites.

Loading next visibility...
Identifier
64916, 2025-157N
Orbit
LEO
Country
Flag of USUS
Related business
Manufacturer
SpaceX/Seattle
Mission
Operational Commercial Communications
Bus & Motor
STARLINK V2MO, Unknown motor
Mass
575 kg wet, ~530 kg dry
Launch date (UTC)
2025-07-26 (4 months ago)
Launch vehicle
FALCON 9
Launch site
Air Force Eastern Test Range (AFETR)
Object type
Payload
Rocket body
Debris
Shape & HBR
Box + 2 Pan, 17.7 m
Radar Cross Section
36.964 m², Large (>1 m²)

Expand to show TLE details & history
Last TLE update: 16 hours ago

TLE from 16 hours ago
0 STARLINK-34695
1 64916U 25157N   25340.52386803  .00124472  00000-0  30695-2 0  9990
2 64916  53.1585  62.3948 0001139  68.1577 291.9549 15.39637158 21803
Epoch: 2025-12-06T12:34Z
TLE epoch observation values (Epoch: 2025-12-06T12:34:22.197Z)
Latitude
-0.00003°
Longitude
158.25191°
Altitude
447.794 km
Speed
7.645 km/s
True Right ascension
04h 09m 34s
True Declination
0° 00' 00"
Sunlit
Object was in full shadow at epoch
Visualization orbit readout
Latitude
Unknown
Longitude
Unknown
Altitude
Unknown
Speed
Unknown
Apparent Right ascension
Unknown
Apparent Declination
Unknown
Sunlit
N/A
Visualization observer readout
Local Sidereal Time
02:30:13
Azimuth
Unknown
Elevation
Unknown
Doppler factor
Unknown
Orbital elements
Apogee altitude
448.217 km
Perigee altitude
446.662 km
Semi-major axis
6,825.576 km
Eccentricity
0.00011
Inclination
53.1585°
RAAN
62.3948°
Arg. of periapsis
68.1577°
True anomaly
291.94279°
Mean anomaly
291.9549°
Eccentric anomaly
291.94885°
Mean motion
3.84888 °/min
Orbital period
93.53 mins
BSTAR
0.0030695
Loading maneuver chart data...
Computing Atmospheric mass density...
Loading historical data...
Loading historical data...
Loading historical data...
Loading historical data...
Loading historical data...
Loading historical data...
Loading historical data...

Documentation

Showing up to 5 results
|